New Haven, CT

9:12 AM EDT on July 28, 2017 (GMT -0400)
Tweed-New Haven

Weather History for KHVN - March, 2013

Change the Weather History Date:

Tuesday, March 26, 2013

  Actual Average Record
Temperature  
Mean Temperature 44 °F -  
Max Temperature 53 °F 48 °F 69 °F (1986)
Min Temperature 34 °F 34 °F 25 °F (1972)
Degree Days  
Heating Degree Days 20    
Moisture  
Dew Point 24 °F    
Average Humidity 48    
Maximum Humidity 65    
Minimum Humidity 29    
Precipitation  
Precipitation 0.00 in - - ()
Sea Level Pressure  
Sea Level Pressure 29.71 in    
Wind  
Wind Speed 7 mph (NW)    
Max Wind Speed 13 mph    
Max Gust Speed 22 mph    
Visibility 10 miles    
Events      
Averages and records for this station are not official NWS values.
T = Trace of Precipitation, MM = Missing Value Source: NWS Daily Summary

Daily Weather History Graph

Daily Weather History Graph

Search for Another Location

Airport or City:

Trip Planner

Search our weather history database for the weather conditions in past years. The results will help you decide how hot, cold, wet, or windy it might be!

Date:

Astronomy

Mar. 26, 2013 Rise Set
Actual Time 6:44 AM EDT 7:10 PM EDT
Civil Twilight 6:16 AM EDT 7:38 PM EDT
Nautical Twilight 5:44 AM EDT 8:10 PM EDT
Astronomical Twilight 5:10 AM EDT 8:44 PM EDT
Moon 6:44 PM EDT (3/26) 5:59 AM EDT (3/26)
Length of Visible Light 13h 21m
Length of Day
12h 26m
Waxing Gibbous, 99% of the Moon is Illuminated
Mar 26
Waxing Gibbous
Mar 27
Full
Apr 3
Last Quarter
Apr 10
New
Apr 18
First Quarter

Hourly Weather History & Observations

Time (EDT) Temp. Windchill Dew Point Humidity Pressure Visibility Wind Dir Wind Speed Gust Speed Precip Events Conditions
12:53 AM 39.9 °F 33.4 °F 25.0 °F 55% 29.56 in 10.0 mi North 10.4 mph - N/A   Overcast
1:53 AM 39.9 °F 35.1 °F 24.1 °F 53% 29.57 in 10.0 mi NNW 6.9 mph - N/A   Scattered Clouds
2:53 AM 39.9 °F 35.1 °F 24.1 °F 53% 29.59 in 10.0 mi NNW 6.9 mph - N/A   Overcast
3:53 AM 39.0 °F 35.7 °F 26.1 °F 60% 29.60 in 10.0 mi NNW 4.6 mph - N/A   Overcast
4:53 AM 39.0 °F 34.8 °F 27.0 °F 62% 29.61 in 10.0 mi NW 5.8 mph - N/A   Overcast
5:53 AM 39.0 °F 35.7 °F 27.0 °F 62% 29.64 in 10.0 mi NW 4.6 mph - N/A   Overcast
6:53 AM 39.0 °F 35.7 °F 28.0 °F 65% 29.66 in 10.0 mi NW 4.6 mph - N/A   Overcast
7:53 AM 39.9 °F 36.7 °F 28.0 °F 63% 29.69 in 10.0 mi NNW 4.6 mph - N/A   Overcast
8:53 AM 41.0 °F 37.1 °F 28.0 °F 60% 29.70 in 10.0 mi NW 5.8 mph - N/A   Overcast
9:53 AM 43.0 °F 39.5 °F 28.0 °F 56% 29.71 in 10.0 mi NW 5.8 mph - N/A   Overcast
10:53 AM 45.0 °F 41.2 °F 27.0 °F 49% 29.72 in 10.0 mi Variable 6.9 mph - N/A   Overcast
11:53 AM 46.9 °F - 27.0 °F 46% 29.72 in 10.0 mi Variable 6.9 mph - N/A   Mostly Cloudy
12:53 PM 48.0 °F - 26.1 °F 42% 29.71 in 10.0 mi NNW 5.8 mph - N/A   Overcast
1:53 PM 48.9 °F - 24.1 °F 38% 29.72 in 10.0 mi NW 11.5 mph 20.7 mph N/A   Mostly Cloudy
2:53 PM 48.9 °F - 23.0 °F 36% 29.71 in 10.0 mi WNW 11.5 mph 21.9 mph N/A   Partly Cloudy
3:53 PM 50.0 °F - 21.9 °F 33% 29.72 in 10.0 mi North 12.7 mph 19.6 mph N/A   Mostly Cloudy
4:53 PM 50.0 °F - 21.0 °F 32% 29.72 in 10.0 mi NNW 8.1 mph 17.3 mph N/A   Mostly Cloudy
5:53 PM 50.0 °F - 19.0 °F 29% 29.74 in 10.0 mi NNW 9.2 mph 18.4 mph N/A   Mostly Cloudy
6:53 PM 46.9 °F - 19.0 °F 33% 29.77 in 10.0 mi NW 5.8 mph - N/A   Scattered Clouds
7:53 PM 45.0 °F 43.5 °F 21.0 °F 39% 29.79 in 10.0 mi NW 3.5 mph - N/A   Partly Cloudy
8:53 PM 44.1 °F - 19.0 °F 37% 29.81 in 10.0 mi Calm Calm - N/A   Clear
9:53 PM 42.1 °F - 24.1 °F 49% 29.83 in 10.0 mi Calm Calm - N/A   Clear
10:53 PM 41.0 °F 39.0 °F 21.9 °F 47% 29.83 in 10.0 mi WNW 3.5 mph - N/A   Clear
11:53 PM 34.0 °F 31.0 °F 23.0 °F 64% 29.83 in 10.0 mi WNW 3.5 mph - N/A   Clear